COSMOS 2251 DEB, 34021

Orbit data source: Space-Track

COSMOS 2251 DEB, 34021 is space debris in LEO originally from a launch on Wed, 16 Jun 1993 UTC launched from the Plesetsk Missile And Space Complex (PKMTR). The debris from Iridium 33, an American commercial communications satellite, has been tracked extensively since its accidental collision with the defunct Russian satellite Cosmos 2251 in 2009. This event, occurring at high speed in low Earth orbit (LEO), generated thousands of pieces of space debris, significantly increasing the risk of further collisions. The Iridium 33 debris cloud has impacted space traffic management and orbital debris mitigation strategies, making it a subject of ongoing study in space situational awareness.

Loading next visibility...
Identifier
34021, 1993-036HG
Orbit
LEO
Country
Flag of CISCIS
Related business
Manufacturer
Unknown
Mission
Spacecraft
Bus & Motor
Unknown
Mass
Unknown
Launch date (UTC)
Icon of a cake. It is the launch day of the satellite!1993-06-16 (33 years ago)
Launch vehicle
Unknown
Launch site
Plesetsk Missile And Space Complex (PKMTR)
Object type
Payload
Rocket body
Debris
Shape & HBR
Unknown shape, 0.2 m
Radar Cross Section
Medium (>0.1 m² and <1 m²)

Expand to show TLE details & history
Last TLE update: 12 hours ago

TLE from 12 hours ago
0 COSMOS 2251 DEB
1 34021U 93036HG  26167.17035571  .00001010  00000-0  26429-3 0  9990
2 34021  74.0345 141.4724 0021363 240.4261 135.6538 14.50515660913188
Epoch: 2026-06-16T04:05Z
TLE epoch observation values (Epoch: 2026-06-16T04:05:18.733Z)
Latitude
15.59199°
Longitude
-179.74731°
Altitude
736.774 km
Speed
7.482 km/s
True Right ascension
09h 44m 06s
True Declination
15° 30' 11"
Sunlit
Object was in daylight at epoch
Visualization orbit readout
Latitude
Unknown
Longitude
Unknown
Altitude
Unknown
Speed
Unknown
Apparent Right ascension
Unknown
Apparent Declination
Unknown
Sunlit
N/A
Visualization observer readout
Local Sidereal Time
02:39:55
Azimuth
Unknown
Elevation
Unknown
Doppler factor
Unknown
Orbital elements
Apogee altitude
736.74 km
Perigee altitude
706.406 km
Semi-major axis
7,099.71 km
Eccentricity
0.00214
Inclination
74.0345°
RAAN
141.4724°
Arg. of periapsis
240.4261°
True anomaly
135.82459°
Mean anomaly
135.6538°
Eccentric anomaly
135.73923°
Mean motion
3.62813 °/min
Orbital period
99.22 mins
BSTAR
0.00026429

Documentation

Showing up to 5 results
|